Simultaneous Nadir Overpasses (SNOs) Predictions

Prediction of SNOs between LANDSAT-8 and METOP-B Satellite Orbit:

Table of predicted SNOs for the next 14.0 days since TLE Epoch: 11/9/2019
Index Date (LANDSAT-8) Time (LANDSAT-8) Lat,Lon (LANDSAT-8) SZA (LANDSAT-8 ) Date (METOP-B) Time (METOP-B) Lat,Lon (METOP-B) SZA (METOP-B ) Distance(km) Time Diff (sec)
1 11/10/2019 18:39:17 -81.08, 119.47 79.40 11/10/2019 18:38:26 -81.09, 119.60 79.41 2.38 51
2 11/10/2019 19:28:42 81.11, -72.44 100.68 11/10/2019 19:29:05 81.11, -72.46 100.68 0.46 23
3 11/13/2019 14:13:31 -81.10,-173.82 78.61 11/13/2019 14:12:49 -81.10,-173.66 78.61 2.71 42
4 11/13/2019 15:02:57 81.10, -6.12 101.41 11/13/2019 15:03:29 81.11, -6.10 101.43 0.55 32
5 11/16/2019 09:47:45 -81.09,-107.50 77.92 11/16/2019 09:47:12 -81.10,-107.32 77.91 3.19 33
6 11/16/2019 10:37:10 81.12, 60.54 102.16 11/16/2019 10:37:51 81.12, 60.62 102.18 1.33 41
7 11/19/2019 05:22:00 -81.08, -41.20 77.28 11/19/2019 05:21:37 -81.08, -41.36 77.30 2.74 23
8 11/19/2019 06:11:25 81.11, 126.81 102.79 11/19/2019 06:12:15 81.11, 126.94 102.84 2.53 50
9 11/22/2019 00:56:14 -81.09, 25.43 76.63 11/22/2019 00:56:00 -81.09, 25.32 76.65 1.78 14




NCC Satellite Simultaneous Nadir Overpasses (SNOs) Prediction Service
